Location: Brompton
(51.4000°N, 0.5333°E)
Time: 10:24:56
(UTC+00:00)

Cosmos 1898 Rocket - Pass Details

Date: 02 October 2021
Orbit: 752 x 784 km, 74.0° (Epoch: 17 October)

Event Time Altitude Azimuth Distance (km) Brightness Sun altitude
Rises 03:59:39 0° 338° (NNW) 3,272 6.7 -19.4°
Reaches altitude 10° 04:02:11 10° 346° (NNW) 2,344 6.1 -19.0°
Maximum altitude 04:07:12 40° 55° (NE) 1,149 4.9 -18.2°
Drops below altitude 10° 04:12:12 10° 125° (SE) 2,341 6.5 -17.5°
Sets 04:14:44 0° 133° (SE) 3,266 7.2 -17.1°
